Current weather by "City, St" or "zip code"  
 
Advertise Here

Current Conditions: Duluth - Sky Harbor Airport, MN

Light Snow


23.0 F

Last Updated on Jan 17 2021, 9:55 pm CST
Humidity: 80%
Wind Speed: W 6.9 mph
Barometer 29.78 in
Dewpoint: 17.6 F
Visibility: 10.00 mi
Precip: --
Heat Index: NA
Wind Chill: 15 F
Current conditions at:

Duluth - Sky Harbor Airport, MN (KDYT)

Lat: 46.72452 Lon: 92.04448

Local Radar Image active severe weather and emergency alerts image image weather storm and storm spotter reports image weather observation monitoring service image
Local
Radar
Active
Alerts
Storm Reports Obs
Monitoring

Sign-up For Email & Text Message Weather Alert Notification Services


Advertise Here

Observation History for Duluth - Sky Harbor Airport, MN


Time Wind
(mph)
Vis
(mi)
Weather Precip (in) Temperature (F) Relative
Humidity
Wind
Chill
(F)
Heat
Index
(F)
Pressure
Air Dwpt altimeter
(in)
sea level
(mb)
Rmks
9:55 pm CST W 6.9 10.00 Light Snow -- 23.0 17.6 80% 15 NA 29.78 M
8:55 pm CST W 9.2 10.00 Overcast -- 23.0 17.6 80% 13 NA 29.79 M
7:55 pm CST NW 8.1 10.00 Light Snow -- 23.0 17.6 80% 14 NA 29.78 M
6:55 pm CST W 9.2 10.00 Overcast -- 25.0 17.6 74% 16 NA 29.79 M
5:55 pm CST NW 9.2 10.00 Overcast -- 25.0 17.6 74% 16 NA 29.79 M
4:55 pm CST NW 11.5 10.00 Overcast -- 25.0 19.4 80% 14 NA 29.79 M
3:55 pm CST W 8.1 10.00 Overcast -- 27.0 19.4 74% 19 NA 29.77 M
2:55 pm CST W 5.8 10.00 Overcast -- 27.0 19.4 74% 20 NA 29.77 M
1:55 pm CST W 5.8 10.00 Overcast -- 27.0 19.4 74% 20 NA 29.76 M
12:55 pm CST W 6.9 10.00 Overcast -- 27.0 19.4 74% 20 NA 29.77 M
11:55 am CST N 0.0 10.00 Overcast -- 27.0 19.4 74% NA NA 29.79 M
10:55 am CST NW 6.9 10.00 Overcast -- 27.0 19.4 74% 20 NA 29.80 M
9:55 am CST NW 5.8 10.00 Overcast -- 27.0 19.4 74% 20 NA 29.80 M
8:55 am CST NW 4.6 10.00 Light Snow -- 25.0 19.4 80% 19 NA 29.79 M
7:55 am CST NW 3.5 10.00 Overcast -- 25.0 19.4 80% NA NA 29.79 M
6:55 am CST NW 4.6 10.00 Overcast -- 27.0 19.4 74% 22 NA 29.78 M
5:55 am CST NW 6.9 10.00 Overcast -- 27.0 21.2 80% 20 NA 29.77 M
4:55 am CST NW 8.1 10.00 Overcast -- 27.0 21.2 80% 19 NA 29.76 M
3:55 am CST NW 5.8 10.00 Overcast -- 27.0 21.2 80% 20 NA 29.76 M
2:55 am CST NW 3.5 10.00 Overcast -- 27.0 21.2 80% NA NA 29.77 M
1:55 am CST W 5.8 10.00 Overcast -- 27.0 21.2 80% 20 NA 29.76 M
12:55 am CST NW 4.6 10.00 Overcast -- 27.0 21.2 80% 22 NA 29.76 M
11:55 pm CST NW 8.1 10.00 Overcast -- 27.0 21.2 80% 19 NA 29.76 M
10:55 pm CST NW 4.6 10.00 Light Snow -- 28.0 21.2 74% 23 NA 29.75 M

Regional Weather Observation


Duluth - Sky Harbor Airport, MN (KDYT)

Light Snow
23.0 F

Richard I. Bong Airport, WI (KSUW)

Light Snow
23.0 F

Cloquet Carlton County Airport, MN (KCOQ)

Overcast
18.0 F

Two Harbors, MN (KTWM)

Overcast
19.0 F

Eveleth-Virginia Municipal Airport, MN (KEVM)

Overcast
18.0 F

Moose Lake Carlton County Airport, MN (KMZH)

Overcast
19.0 F